Location: Four Corners
(38.2757°N, 122.4608°W)
Time: 12:46:15
(UTC+00:00)

Meteor 2-13 Rocket - Pass Details

Date: 08 December 2019
Orbit: 937 x 957 km, 82.5° (Epoch: 18 January)

Event Time Altitude Azimuth Distance (km) Brightness Sun altitude
Rises 03:00:59 0° 177° (S) 3,579 7.5 -25.1°
Reaches altitude 10° 03:03:28 10° 174° (S) 2,639 6.8 -25.6°
Enters shadow 03:08:43 60° 130° (SE) 1,063 4.4 -26.6°
